SCP
0 0 0 0 0 0 0 0 0 0 0 0 0 0 0 0 0 0 0 0 0 0 0 0 0 0 0 0 0 0 0 0 0 0 0 0 0 0 0 0 -0 -0 -0 -0
0 0 0 0 0 0 0 0 0 0 0 0 0 0 0 0 0 0 0 0 0 0 0 0 0 0 0 0 0 0 0 0 0 0 0 0 0 0 0 0 0 -0 -0 -0
0 0 0 0 0 0 0 0 0 0 0 0 0 0 0 0 0 0 0 0 0 0 0 0 0 0 0 0 0 0 0 0 0 0 0 0 0 0 0 0 0 -0 -0 -0
0 0 0 0 0 0 0 0 0 0 0 0 0 0 0 0 0 0 0 0 0 0 0 0 0 0 0 0 0 0 0 0 0 0 0 0 0 0 0 0 -0 -0 -0 0
0 0 0 0 0 0 0 0 0 0 0 0 0 0 0 0 0 0 0 0 0 0 0 0 0 0 0 0 0 0 0 0 0 0 0 0 0 0 0 0 -0 -0 0 0
0 0 0 0 0 0 0 0 0 0 0 0 0 0 0 0 0 0 0 0 0 0 0 0 0 0 0 0 0 0 0 0 0 0 0 0 0 0 0 0 0 0 0 0
0 0 0 0 0 0 0 0 0 0 0 0 0 0 0 0 0 0 0 0 0 0 0 0 0 0 0 0 0 0 0 0 0 0 0 0 0 0 0 0 0 0 0 0
0 0 0 0 0 0 0 0 0 0 0 0 0 0 0 0 0 0 0 0 0 0 0 0 0 0 0 0 0 0 0 0 0 0 0 0 0 0 0 0 0 0 0 0
0 0 0 0 0 0 0 0 0 0 0 0 0 0 0 0 0 0 0 0 0 0 0 0 0 0 0 0 0 0 0 0 0 0 0 0 0 0 0 0 0 0 0 0
0 0 0 0 0 0 0 0 0 0 0 0 0 0 0 0 0 0 0 0 0 0 0 0 0 0 0 0 0 0 0 0 0 0 0 0 0 0 0 0 0 0 0 0
0 0 0 0 0 0 0 0 0 0 0 0 0 0 0 0 0 0 0 0 0 0 0 0 0 0 0 0 0 0 0 0 0 0 0 0 0 0 0 0 0 0 0 0
0 0 0 0 0 0 0 0 0 0 0 0 0 0 0 0 0 0 0 0 0 0 0 0 0 0 0 0 0 0 0 0 0 0 0 0 0 0 0 0 0 0 0 0
0 0 0 0 0 0 0 0 0 0 0 0 0 0 0 0 0 0 0 0 0 0 0 0 0 0 0 0 0 0 0 0 0 0 0 0 0 0 0 0 0 0 0 0
0 0 0 0 0 0 0 0 0 0 0 0 0 0 0 0 0 0 0 0 0 0 0 0 0 0 0 0 0 0 0 0 0 0 0 0 0 0 0 0 0 0 0 0
0 0 0 0 0 0 0 0 0 0 0 0 0 0 0 0 0 0 0 0 0 0 0 0 0 0 0 0 0 0 0 0 0 0 0 0 0 0 0 0 0 0 0 0
0 0 0 0 0 0 0 0 0 0 0 0 0 0 0 0 0 0 0 0 0 0 0 0 0 0 0 0 0 0 -0 -0 0 0 0 0 0 0 0 0 0 0 0 0
0 0 0 0 0 0 0 0 0 0 0 0 0 0 0 0 0 0 0 0 0 0 0 0 0 -0 -0 -0 0 0 0 0 0 0 0 0 0 0 0 0 0 0 0 0
0 0 0 0 0 0 0 0 0 0 0 0 0 0 0 0 0 0 0 0 0 0 0 0 0 0 0 0 0 0 0 0 0 0 0 0 0 0 0 0 0 -0 -0 0
0 0 0 0 0 0 0 0 0 0 0 0 0 0 0 0 0 0 0 0 0 0 0 0 0 0 0 0 0 0 0 0 0 0 0 0 0 0 0 0 0 0 0 0
0 0 0 0 0 0 -0 0 0 0 0 0 0 0 0 0 0 0 0 0 0 0 0 0 0 0 0 0 0 0 0 0 0 0 0 0 0 0 0 0 0 0 0 0
0 0 0 0 0 -0 -0 0 0 0 0 0 0 0 0 0 0 0 0 0 0 0 0 0 0 0 0 0 0 0 0 0 0 0 0 0 0 0 0 0 0 0 0 0
0 0 0 -0 -0 -0 0 0 0 -0 0 0 0 0 0 0 0 0 0 0 0 0 0 0 0 0 0 0 0 0 0 0 0 0 0 0 0 0 0 0 0 0 0 0
0 0 -0 -0 -0 -0 -0 -0 -0 -0 -0 -0 0 0 0 0 0 0 0 0 0 0 0 0 0 0 0 0 0 0 0 0 0 0 0 0 0 0 0 0 0 0 0 0
0 0 -0 -0 -0 -0 -0 0 -0 -0 -0 -0 -0 -0 0 0 0 0 0 0 0 0 0 0 0 0 0 0 0 0 0 0 0 0 0 0 0 0 0 0 0 0 0 0
0 0 0 -0 -0 -0 -0 0 -0 0 0 0 -0 -0 0 0 0 0 0 0 0 0 0 0 0 0 0 0 0 0 0 0 0 0 0 0 0 0 0 0 0 0 0 0
0 0 0 -0 -0 -0 -0 -0 -0 -0 -0 -0 -0 -0 -0 0 0 0 0 0 0 0 0 0 0 0 0 0 0 0 0 0 0 0 0 0 0 0 0 0 0 0 0 0
-0 -0 -0 0 -0 -0 -0 -0 -0 -0 -0 0 0 0 0 0 0 0 0 0 0 0 0 0 0 0 0 0 0 0 0 0 0 0 0 0 0 0 0 0 0 0 0 0
Wind_Speed_500mb
7 6 4 5 12 17 8 13 11 12 9 17 17 9 13 41 41 33 18 25 37 50 49 41 28 15 12 22 17 14 20 24 27 29 33 33 33 36 36 39 50 50 46 49
4 7 10 13 18 19 19 23 10 10 2 9 34 46 44 32 30 26 22 18 10 29 48 44 44 29 23 21 19 28 36 28 29 38 39 38 28 31 39 43 45 44 49 60
8 6 8 12 10 9 6 11 7 9 5 8 17 31 35 30 24 20 18 16 12 4 17 38 42 35 25 21 29 31 21 22 31 29 26 22 22 30 32 35 41 49 59 55
8 4 5 13 12 22 26 14 16 17 12 18 26 30 27 22 22 20 16 13 9 7 9 16 17 19 22 19 20 9 3 4 15 19 21 24 31 36 38 42 50 58 51 46
8 7 10 13 5 5 7 5 6 13 14 20 23 25 21 18 12 16 15 14 10 6 8 14 15 12 14 16 14 12 20 22 27 30 33 35 38 43 50 54 55 54 50 45
6 7 10 7 8 10 12 1 2 13 8 11 12 6 7 20 12 12 13 16 18 15 15 11 8 8 19 23 30 26 27 25 30 36 41 48 49 48 43 44 43 46 44 34
5 6 13 7 13 2 9 12 3 19 18 18 9 3 3 18 13 14 15 23 21 14 6 7 5 11 21 29 26 28 34 38 41 44 51 53 60 49 37 38 41 43 38 33
5 4 11 12 3 9 13 15 24 15 14 17 10 9 8 16 17 18 18 15 9 14 19 17 23 22 22 22 20 25 31 36 45 50 54 50 43 34 33 34 36 34 34 36
13 11 8 6 2 17 19 28 17 16 19 10 10 12 7 7 11 13 11 12 8 1 7 5 4 5 12 17 24 31 39 44 45 35 26 24 26 28 30 28 32 37 40 43
7 4 20 33 26 27 19 20 15 17 13 6 6 4 3 12 12 3 5 6 4 4 10 17 19 26 32 29 28 28 25 27 27 32 32 31 27 26 26 32 34 37 39 39
1 7 22 20 22 17 11 6 9 9 5 6 6 7 6 10 4 8 6 6 6 2 9 18 26 18 15 19 24 26 26 27 37 39 34 27 26 25 26 33 32 32 34 38
10 17 11 12 7 3 4 15 21 11 7 8 7 16 20 18 14 19 10 3 5 14 19 16 13 22 23 22 25 25 26 40 37 35 31 23 24 20 24 31 31 28 31 31
10 22 12 7 1 10 18 16 12 12 10 18 20 22 25 23 9 5 9 14 19 16 20 22 22 19 20 25 24 23 33 33 28 27 24 22 22 26 38 24 23 27 29 31
16 27 19 14 8 12 10 18 15 17 25 21 26 21 11 4 5 5 12 14 16 23 25 24 27 29 24 19 21 23 25 21 22 21 22 21 23 21 19 23 27 29 26 30
22 18 12 10 12 17 16 19 20 26 24 17 6 3 5 8 12 11 8 14 18 22 27 28 28 26 23 19 17 17 15 11 18 20 25 28 32 23 20 26 30 35 35 37
18 10 3 4 17 26 22 23 30 27 13 6 10 7 2 9 5 5 10 11 23 24 17 19 21 18 16 12 11 9 8 11 15 19 20 22 27 26 27 28 32 32 33 33
15 18 16 20 22 23 23 34 26 16 15 13 11 5 6 3 3 2 9 16 23 18 13 15 16 17 18 18 16 11 10 15 20 25 25 22 18 24 26 34 36 33 27 25
13 11 13 17 19 28 27 24 21 21 16 9 12 10 4 2 3 1 8 13 17 18 12 11 13 15 14 14 14 16 19 25 21 15 14 14 16 17 26 29 38 43 45 31
14 7 13 16 24 38 31 28 20 17 15 14 10 10 5 2 4 4 8 12 18 17 13 12 12 18 8 10 12 18 19 17 13 18 16 16 13 13 17 26 33 36 33 34
16 23 27 26 39 32 29 21 18 18 17 15 16 7 4 1 3 5 8 18 16 15 14 12 20 15 8 10 13 13 10 13 16 12 13 20 17 19 20 15 21 19 19 22
24 45 42 42 37 26 24 21 17 16 23 16 11 6 2 3 9 11 15 16 16 11 9 11 18 10 10 9 8 5 17 15 14 19 14 17 19 21 17 13 18 22 22 25
36 38 37 36 35 30 25 17 18 16 14 18 10 5 5 8 10 13 7 14 7 8 2 7 4 5 11 7 7 10 11 18 18 11 12 12 20 26 19 13 19 22 23 25
33 32 35 35 29 23 26 20 17 15 11 6 11 9 6 5 5 6 5 13 13 12 8 9 20 11 8 4 3 13 5 5 9 13 13 14 21 24 25 19 20 24 25 28
33 33 33 24 23 25 25 23 20 13 11 11 7 13 11 5 2 2 1 10 13 10 11 14 15 11 3 8 5 13 3 6 6 9 11 13 17 21 22 23 22 26 24 24
30 33 31 29 23 20 18 22 20 16 12 10 11 13 8 5 2 5 10 6 6 12 11 6 7 3 3 4 11 11 6 0 2 5 12 14 16 18 21 22 21 22 23 24
30 32 30 29 24 20 16 18 14 17 18 17 13 13 10 8 10 12 6 4 3 2 12 9 7 4 4 2 6 9 13 4 4 7 12 15 15 16 18 19 21 19 19 21
35 30 30 33 28 27 22 18 18 19 19 17 14 10 13 15 14 10 5 10 12 9 5 6 5 5 6 8 6 7 8 7 5 8 12 16 17 15 17 20 21 19 18 20
Wind_Direction_500mb
236 279 6 287 297 301 292 227 178 247 234 271 283 317 54 106 104 107 115 204 226 227 222 217 221 236 326 268 254 272 291 320 328 339 338 335 327 340 348 348 351 350 348 346
292 303 337 306 284 269 274 276 166 141 213 28 79 83 80 86 92 84 70 66 172 221 215 211 221 232 270 238 244 272 274 300 319 317 317 317 308 330 330 335 339 337 335 333
250 253 335 319 256 238 207 18 140 74 304 97 69 84 93 89 87 93 92 91 96 106 225 237 233 269 240 244 256 274 255 286 302 308 317 311 312 317 319 321 326 327 326 329
203 50 236 239 302 96 94 49 65 91 66 109 109 100 90 75 83 91 101 103 100 134 196 225 242 247 225 238 216 224 211 265 290 306 314 312 307 309 315 321 325 327 331 327
151 188 290 319 334 188 144 47 60 94 93 120 115 97 81 101 85 108 104 112 107 103 151 154 153 137 184 217 215 251 293 299 300 304 310 311 312 315 311 312 317 317 320 328
134 156 226 241 319 131 87 166 199 106 115 94 88 69 253 165 156 165 178 166 164 162 164 188 208 265 275 287 298 285 286 295 308 314 312 313 315 313 312 314 316 322 324 331
145 191 283 249 308 185 131 221 106 84 84 66 69 354 180 185 179 175 170 162 155 154 141 130 136 305 294 292 296 304 306 306 310 314 316 317 312 299 303 308 315 318 318 327
107 150 274 200 87 174 177 145 129 101 96 91 65 26 136 150 148 167 178 187 244 289 303 285 282 261 269 283 289 292 294 304 309 309 312 313 315 317 307 308 307 313 316 316
168 215 237 207 164 166 163 127 100 109 110 93 96 97 115 171 196 193 206 242 286 102 293 90 120 226 291 305 303 306 310 312 318 327 324 325 331 328 325 320 315 314 315 315
92 53 82 112 106 124 138 127 121 135 135 113 83 101 203 185 172 189 322 128 132 165 279 296 316 321 318 313 315 323 337 341 334 328 331 321 321 328 327 320 313 319 323 325
288 118 104 104 112 118 113 125 170 153 129 95 70 132 155 156 144 109 118 120 151 222 304 313 323 338 342 335 333 329 333 335 335 330 330 320 316 323 317 316 326 326 323 322
216 185 157 162 143 176 168 151 149 161 167 148 143 139 133 130 117 149 144 153 316 332 329 328 307 313 314 316 322 330 334 337 336 339 334 324 327 333 334 342 331 326 326 332
182 160 159 163 160 108 135 144 152 157 150 152 149 149 153 138 128 76 13 6 3 354 340 322 312 311 313 314 315 327 331 337 339 338 353 342 337 331 335 353 342 328 328 329
220 162 117 95 113 174 170 149 152 142 147 139 125 128 128 113 130 14 24 353 325 321 313 314 311 310 308 309 304 317 330 345 348 351 351 352 348 344 358 3 358 353 352 356
111 120 114 103 152 159 159 156 157 152 152 144 119 78 104 85 38 12 328 317 322 326 322 321 314 306 303 296 305 316 342 25 29 30 27 19 18 10 3 358 356 349 340 336
136 129 110 254 160 167 177 172 162 153 154 130 139 146 102 344 327 304 326 356 348 352 10 18 31 31 18 4 347 5 27 35 23 5 5 16 18 16 13 1 350 347 333 333
190 173 178 156 182 183 168 167 164 154 136 142 143 137 94 68 275 311 2 352 0 8 18 23 36 31 31 38 42 31 20 15 9 2 4 11 9 11 13 19 8 7 1 2
197 189 214 199 176 176 158 158 161 151 152 134 130 123 108 244 345 63 6 353 1 6 3 24 39 42 31 33 46 24 14 360 359 358 355 15 6 18 29 27 28 30 34 53
203 205 184 170 159 158 163 157 150 149 146 174 162 167 193 90 52 16 308 318 339 353 359 6 8 0 4 29 25 9 3 15 24 34 64 32 24 353 0 34 39 33 32 28
234 206 184 164 165 170 152 146 163 164 166 148 153 188 167 342 327 303 292 315 319 339 0 9 2 4 71 56 29 14 23 22 40 62 49 33 29 11 35 40 39 41 37 25
144 155 152 148 153 155 156 157 153 157 156 162 193 213 223 295 293 299 297 309 323 319 330 4 18 89 71 22 11 32 25 26 38 42 37 18 16 8 11 64 23 11 8 1
139 146 153 153 156 166 156 158 158 154 162 184 192 225 254 283 289 300 337 350 340 313 280 324 311 98 40 39 8 1 34 40 52 34 10 15 15 17 19 6 0 0 353 356
156 155 160 158 156 151 154 156 176 185 187 180 211 249 285 294 288 331 42 28 43 42 343 335 171 133 82 42 353 356 300 21 41 17 28 18 14 17 20 16 6 359 352 355
146 162 166 163 164 160 168 176 179 193 192 209 213 254 256 208 121 15 24 42 45 51 63 102 136 156 181 311 341 27 104 58 39 20 11 1 3 5 6 8 10 10 7 11
168 172 178 182 181 187 190 182 184 207 202 202 192 177 172 191 204 67 68 83 37 39 38 179 156 125 195 313 13 356 335 164 7 359 346 343 349 357 3 8 13 15 22 25
178 182 190 189 199 201 191 195 204 214 204 210 215 210 225 244 265 272 270 332 318 348 36 32 205 238 222 246 12 358 22 291 292 333 347 352 354 358 3 11 18 22 24 27
204 200 205 200 207 214 219 227 221 225 229 223 233 230 244 246 246 232 197 244 254 255 277 340 0 241 222 262 302 309 327 342 347 314 325 334 337 340 350 358 8 10 11 12
Wind_Speed_850mb
7 6 4 5 12 17 8 13 11 12 9 17 17 9 13 41 41 33 18 25 37 50 49 41 28 15 12 22 17 14 20 24 27 29 33 33 33 36 36 39 50 50 46 49
4 7 10 13 18 19 19 23 10 10 2 9 34 46 44 32 30 26 22 18 10 29 48 44 44 29 23 21 19 28 36 28 29 38 39 38 28 31 39 43 45 44 49 60
8 6 8 12 10 9 6 11 7 9 5 8 17 31 35 30 24 20 18 16 12 4 17 38 42 35 25 21 29 31 21 22 31 29 26 22 22 30 32 35 41 49 59 55
8 4 5 13 12 22 26 14 16 17 12 18 26 30 27 22 22 20 16 13 9 7 9 16 17 19 22 19 20 9 3 4 15 19 21 24 31 36 38 42 50 58 51 46
8 7 10 13 5 5 7 5 6 13 14 20 23 25 21 18 12 16 15 14 10 6 8 14 15 12 14 16 14 12 20 22 27 30 33 35 38 43 50 54 55 54 50 45
6 7 10 7 8 10 12 1 2 13 8 11 12 6 7 20 12 12 13 16 18 15 15 11 8 8 19 23 30 26 27 25 30 36 41 48 49 48 43 44 43 46 44 34
5 6 13 7 13 2 9 12 3 19 18 18 9 3 3 18 13 14 15 23 21 14 6 7 5 11 21 29 26 28 34 38 41 44 51 53 60 49 37 38 41 43 38 33
5 4 11 12 3 9 13 15 24 15 14 17 10 9 8 16 17 18 18 15 9 14 19 17 23 22 22 22 20 25 31 36 45 50 54 50 43 34 33 34 36 34 34 36
13 11 8 6 2 17 19 28 17 16 19 10 10 12 7 7 11 13 11 12 8 1 7 5 4 5 12 17 24 31 39 44 45 35 26 24 26 28 30 28 32 37 40 43
7 4 20 33 26 27 19 20 15 17 13 6 6 4 3 12 12 3 5 6 4 4 10 17 19 26 32 29 28 28 25 27 27 32 32 31 27 26 26 32 34 37 39 39
1 7 22 20 22 17 11 6 9 9 5 6 6 7 6 10 4 8 6 6 6 2 9 18 26 18 15 19 24 26 26 27 37 39 34 27 26 25 26 33 32 32 34 38
10 17 11 12 7 3 4 15 21 11 7 8 7 16 20 18 14 19 10 3 5 14 19 16 13 22 23 22 25 25 26 40 37 35 31 23 24 20 24 31 31 28 31 31
10 22 12 7 1 10 18 16 12 12 10 18 20 22 25 23 9 5 9 14 19 16 20 22 22 19 20 25 24 23 33 33 28 27 24 22 22 26 38 24 23 27 29 31
16 27 19 14 8 12 10 18 15 17 25 21 26 21 11 4 5 5 12 14 16 23 25 24 27 29 24 19 21 23 25 21 22 21 22 21 23 21 19 23 27 29 26 30
22 18 12 10 12 17 16 19 20 26 24 17 6 3 5 8 12 11 8 14 18 22 27 28 28 26 23 19 17 17 15 11 18 20 25 28 32 23 20 26 30 35 35 37
18 10 3 4 17 26 22 23 30 27 13 6 10 7 2 9 5 5 10 11 23 24 17 19 21 18 16 12 11 9 8 11 15 19 20 22 27 26 27 28 32 32 33 33
15 18 16 20 22 23 23 34 26 16 15 13 11 5 6 3 3 2 9 16 23 18 13 15 16 17 18 18 16 11 10 15 20 25 25 22 18 24 26 34 36 33 27 25
13 11 13 17 19 28 27 24 21 21 16 9 12 10 4 2 3 1 8 13 17 18 12 11 13 15 14 14 14 16 19 25 21 15 14 14 16 17 26 29 38 43 45 31
14 7 13 16 24 38 31 28 20 17 15 14 10 10 5 2 4 4 8 12 18 17 13 12 12 18 8 10 12 18 19 17 13 18 16 16 13 13 17 26 33 36 33 34
16 23 27 26 39 32 29 21 18 18 17 15 16 7 4 1 3 5 8 18 16 15 14 12 20 15 8 10 13 13 10 13 16 12 13 20 17 19 20 15 21 19 19 22
24 45 42 42 37 26 24 21 17 16 23 16 11 6 2 3 9 11 15 16 16 11 9 11 18 10 10 9 8 5 17 15 14 19 14 17 19 21 17 13 18 22 22 25
36 38 37 36 35 30 25 17 18 16 14 18 10 5 5 8 10 13 7 14 7 8 2 7 4 5 11 7 7 10 11 18 18 11 12 12 20 26 19 13 19 22 23 25
33 32 35 35 29 23 26 20 17 15 11 6 11 9 6 5 5 6 5 13 13 12 8 9 20 11 8 4 3 13 5 5 9 13 13 14 21 24 25 19 20 24 25 28
33 33 33 24 23 25 25 23 20 13 11 11 7 13 11 5 2 2 1 10 13 10 11 14 15 11 3 8 5 13 3 6 6 9 11 13 17 21 22 23 22 26 24 24
30 33 31 29 23 20 18 22 20 16 12 10 11 13 8 5 2 5 10 6 6 12 11 6 7 3 3 4 11 11 6 0 2 5 12 14 16 18 21 22 21 22 23 24
30 32 30 29 24 20 16 18 14 17 18 17 13 13 10 8 10 12 6 4 3 2 12 9 7 4 4 2 6 9 13 4 4 7 12 15 15 16 18 19 21 19 19 21
35 30 30 33 28 27 22 18 18 19 19 17 14 10 13 15 14 10 5 10 12 9 5 6 5 5 6 8 6 7 8 7 5 8 12 16 17 15 17 20 21 19 18 20
Wind_Direction_850mb
236 279 6 287 297 301 292 227 178 247 234 271 283 317 54 106 104 107 115 204 226 227 222 217 221 236 326 268 254 272 291 320 328 339 338 335 327 340 348 348 351 350 348 346
292 303 337 306 284 269 274 276 166 141 213 28 79 83 80 86 92 84 70 66 172 221 215 211 221 232 270 238 244 272 274 300 319 317 317 317 308 330 330 335 339 337 335 333
250 253 335 319 256 238 207 18 140 74 304 97 69 84 93 89 87 93 92 91 96 106 225 237 233 269 240 244 256 274 255 286 302 308 317 311 312 317 319 321 326 327 326 329
203 50 236 239 302 96 94 49 65 91 66 109 109 100 90 75 83 91 101 103 100 134 196 225 242 247 225 238 216 224 211 265 290 306 314 312 307 309 315 321 325 327 331 327
151 188 290 319 334 188 144 47 60 94 93 120 115 97 81 101 85 108 104 112 107 103 151 154 153 137 184 217 215 251 293 299 300 304 310 311 312 315 311 312 317 317 320 328
134 156 226 241 319 131 87 166 199 106 115 94 88 69 253 165 156 165 178 166 164 162 164 188 208 265 275 287 298 285 286 295 308 314 312 313 315 313 312 314 316 322 324 331
145 191 283 249 308 185 131 221 106 84 84 66 69 354 180 185 179 175 170 162 155 154 141 130 136 305 294 292 296 304 306 306 310 314 316 317 312 299 303 308 315 318 318 327
107 150 274 200 87 174 177 145 129 101 96 91 65 26 136 150 148 167 178 187 244 289 303 285 282 261 269 283 289 292 294 304 309 309 312 313 315 317 307 308 307 313 316 316
168 215 237 207 164 166 163 127 100 109 110 93 96 97 115 171 196 193 206 242 286 102 293 90 120 226 291 305 303 306 310 312 318 327 324 325 331 328 325 320 315 314 315 315
92 53 82 112 106 124 138 127 121 135 135 113 83 101 203 185 172 189 322 128 132 165 279 296 316 321 318 313 315 323 337 341 334 328 331 321 321 328 327 320 313 319 323 325
288 118 104 104 112 118 113 125 170 153 129 95 70 132 155 156 144 109 118 120 151 222 304 313 323 338 342 335 333 329 333 335 335 330 330 320 316 323 317 316 326 326 323 322
216 185 157 162 143 176 168 151 149 161 167 148 143 139 133 130 117 149 144 153 316 332 329 328 307 313 314 316 322 330 334 337 336 339 334 324 327 333 334 342 331 326 326 332
182 160 159 163 160 108 135 144 152 157 150 152 149 149 153 138 128 76 13 6 3 354 340 322 312 311 313 314 315 327 331 337 339 338 353 342 337 331 335 353 342 328 328 329
220 162 117 95 113 174 170 149 152 142 147 139 125 128 128 113 130 14 24 353 325 321 313 314 311 310 308 309 304 317 330 345 348 351 351 352 348 344 358 3 358 353 352 356
111 120 114 103 152 159 159 156 157 152 152 144 119 78 104 85 38 12 328 317 322 326 322 321 314 306 303 296 305 316 342 25 29 30 27 19 18 10 3 358 356 349 340 336
136 129 110 254 160 167 177 172 162 153 154 130 139 146 102 344 327 304 326 356 348 352 10 18 31 31 18 4 347 5 27 35 23 5 5 16 18 16 13 1 350 347 333 333
190 173 178 156 182 183 168 167 164 154 136 142 143 137 94 68 275 311 2 352 0 8 18 23 36 31 31 38 42 31 20 15 9 2 4 11 9 11 13 19 8 7 1 2
197 189 214 199 176 176 158 158 161 151 152 134 130 123 108 244 345 63 6 353 1 6 3 24 39 42 31 33 46 24 14 360 359 358 355 15 6 18 29 27 28 30 34 53
203 205 184 170 159 158 163 157 150 149 146 174 162 167 193 90 52 16 308 318 339 353 359 6 8 0 4 29 25 9 3 15 24 34 64 32 24 353 0 34 39 33 32 28
234 206 184 164 165 170 152 146 163 164 166 148 153 188 167 342 327 303 292 315 319 339 0 9 2 4 71 56 29 14 23 22 40 62 49 33 29 11 35 40 39 41 37 25
144 155 152 148 153 155 156 157 153 157 156 162 193 213 223 295 293 299 297 309 323 319 330 4 18 89 71 22 11 32 25 26 38 42 37 18 16 8 11 64 23 11 8 1
139 146 153 153 156 166 156 158 158 154 162 184 192 225 254 283 289 300 337 350 340 313 280 324 311 98 40 39 8 1 34 40 52 34 10 15 15 17 19 6 0 0 353 356
156 155 160 158 156 151 154 156 176 185 187 180 211 249 285 294 288 331 42 28 43 42 343 335 171 133 82 42 353 356 300 21 41 17 28 18 14 17 20 16 6 359 352 355
146 162 166 163 164 160 168 176 179 193 192 209 213 254 256 208 121 15 24 42 45 51 63 102 136 156 181 311 341 27 104 58 39 20 11 1 3 5 6 8 10 10 7 11
168 172 178 182 181 187 190 182 184 207 202 202 192 177 172 191 204 67 68 83 37 39 38 179 156 125 195 313 13 356 335 164 7 359 346 343 349 357 3 8 13 15 22 25
178 182 190 189 199 201 191 195 204 214 204 210 215 210 225 244 265 272 270 332 318 348 36 32 205 238 222 246 12 358 22 291 292 333 347 352 354 358 3 11 18 22 24 27
204 200 205 200 207 214 219 227 221 225 229 223 233 230 244 246 246 232 197 244 254 255 277 340 0 241 222 262 302 309 327 342 347 314 325 334 337 340 350 358 8 10 11 12